Content
SEND FEEDBACK

Daily
Averages
Monthly
Summary
Canada

SHINGLE POINT, YUKON


Home > North America > Canada > Yukon
Elevation: 162 feet     Latitude: 68 57N     Longitude: 137 13W

WEATHER
 
SELECT A DAY
Number of Records: 413,748;   Date Range: 1/30/95 - 8/27/14
 
SHARE

PRINT THIS DATA

[ ← Previous Day ]
WEATHER ALMANAC - JANUARY 31, 2013
[ Next Day → ]
[ °C ]   °F
Weather ElementAverageHighLow
Temperature-25.6 °F-22 °F (4:25 pm)-36.4 °F (1:00 am)
Barometer30.14 in30.24 in (11:00 pm)30.10 in (9:00 am)
Wind Speed7.1 mph12.7 mph (7:00 am)
Weather ElementAverage
Visibility6.1 mi
Wind DirectionSSW (186.6 °)

Weather ElementTotal
Precipitation---
Heating Degree Days94.2 (Base 65)
Averaged from 44 records on January 31, 2013
WEATHER CONDITIONS BREAKOUT
WIND DIRECTION BREAKOUT
WEATHER BY HOUR - JANUARY 31, 2013
[ °C ]   °F
Local TimeTemperatureDewpointHumidityBarometerVisibilityWind DirectionWind SpeedGust SpeedPrecipitationEventsConditions
1:00 AM-36.0 °F30.12 in9.0 miEast (80°)6.9 mph
1:00 AM-36.4 °F0.0 °F30.12 in9.0 miEast (90°)6.9 mph
2:00 AM-36.4 °F0.0 °F30.12 in9.0 miEast (80°)8.1 mph
3:00 AM-34.6 °F0.0 °F30.12 in9.0 miEast (80°)5.8 mph
4:00 AM-34.0 °F30.12 in9.0 miEast (90°)8.1 mph
5:00 AM-32.8 °F0.0 °F30.12 in9.0 miEast (90°)8.1 mph
6:00 AM-31.0 °F0.0 °F30.11 in9.0 miEast (90°)10.4 mph
7:00 AM-31.0 °F30.11 in9.0 miEast (90°)12.7 mph
7:00 AM-31.0 °F0.0 °F30.11 in9.0 miEast (100°)11.5 mph
8:00 AM-29.2 °F0.0 °F30.11 in9.0 miESE (110°)9.2 mph
9:00 AM-29.2 °F0.0 °F30.10 in9.0 miEast (80°)12.7 mph
10:00 AM-27.4 °F0.0 °F30.10 in9.0 miEast (90°)10.4 mph
10:00 AM-28.0 °F30.10 in9.0 miEast (90°)11.5 mph
11:00 AM-27.4 °F0.0 °F30.11 in9.0 miEast (100°)9.2 mph
12:00 PM-25.6 °F0.0 °F30.11 in9.0 miEast (100°)6.9 mph
1:00 PM-26.0 °F30.11 in9.0 miEast (100°)6.9 mph
1:00 PM-25.6 °F0.0 °F30.11 in9.0 miEast (100°)6.9 mph
2:00 PM-23.8 °F0.0 °F30.12 in9.0 miEast (90°)5.8 mph
3:00 PM-23.8 °F0.0 °F30.13 in9.0 miESE (110°)2.3 mph
4:00 PM-23.0 °F30.14 in5.0 miNNE (20°)3.5 mph
4:00 PM-23.8 °F0.0 °F30.14 in5.0 miNorth (10°)2.3 mphSnowLight Snow
4:25 PM-22.0 °F0.0 °F30.11 in3.0 miNNE (20°)2.3 mphSnowLight Snow
4:38 PM-22.0 °F0.0 °F30.12 in4.0 miNNW (340°)2.3 mphSnowLight Snow
5:00 PM-22.0 °F0.0 °F30.16 in4.0 miNorth (10°)5.8 mphSnowLight Snow
5:03 PM-22.0 °F0.0 °F30.12 in3.0 miNorth (10°)5.8 mphSnowLight Snow
5:51 PM-22.0 °F0.0 °F30.14 in1.4 miNorth (350°)5.8 mphSnowLight Snow
5:59 PM-22.0 °F0.0 °F30.14 in1.6 miNNW (340°)5.8 mphSnowLight Snow
6:00 PM-22.0 °F0.0 °F30.17 in1.6 miNNW (340°)5.8 mphSnowLight Snow
6:16 PM-22.0 °F0.0 °F30.14 in6.0 miNorth (350°)4.6 mphSnowLight Snow
6:38 PM-22.0 °F0.0 °F30.15 in2.8 miNNW (340°)4.6 mphSnowLight Snow
7:00 PM-23.0 °F30.19 in2.0 miNNW (330°)3.5 mphSnowLight Snow
7:00 PM-22.0 °F0.0 °F30.19 in2.1 miNNW (330°)3.5 mphSnowLight Snow
7:23 PM-22.0 °F0.0 °F30.16 in1.4 miNW (320°)6.9 mphSnowLight Snow
7:39 PM-22.0 °F0.0 °F30.16 in2.1 miNW (310°)6.9 mphSnowLight Snow
8:00 PM-22.0 °F0.0 °F30.19 in1.5 miWNW (300°)6.9 mphSnowLight Snow
8:22 PM-22.0 °F0.0 °F30.17 in3.5 miWNW (300°)6.9 mphSnowLight Snow
8:23 PM-22.0 °F0.0 °F30.17 in2.8 miWNW (300°)6.9 mphSnowLight Snow
8:30 PM-22.0 °F0.0 °F30.17 in1.4 miWNW (300°)8.1 mphSnowLight Snow
8:44 PM-22.0 °F0.0 °F30.17 in3.0 miNW (310°)6.9 mphSnowLight Snow
9:00 PM-22.0 °F0.0 °F30.21 in5.0 miNW (310°)6.9 mphSnowLight Snow
10:00 PM-22.0 °F30.23 in9.0 miNW (310°)11.5 mph
10:00 PM-22.0 °F0.0 °F30.23 in9.0 miNW (310°)11.5 mphSnowLight Snow
10:26 PM-23.8 °F0.0 °F30.20 in9.0 miWNW (300°)9.2 mph
11:00 PM-23.8 °F0.0 °F30.24 in9.0 miWNW (290°)9.2 mph
Hourly data recorded from CYUA, located miles away from Shingle Point, Yukon







STORIES FROM OUR PARTNERS